Regional Weather Roundup
Issued by NWS

Home | Current Version | Previous Version | Text Only | Print | Product List | Glossary Off
Versions: 1 2 3 4 5 6 7 8 9 10 11 12 13 14 15 16 17 18 19 20 21 22 23 24 25 26 27 28 29 30 31 32 33 34 35 36 37 38 39 40 41 42 43 44 45 46 47 48 49 50

000
ASUS43 KLMK 090502
RWRKY
KENTUCKY REGIONAL WEATHER ROUNDUP
NATIONAL WEATHER SERVICE LOUISVILLE KY
1200 AM EST FRI DEC 09 2016

NOTE "FAIR" INDICATES FEW OR NO CLOUDS BELOW 12,000 FEET
WITH NO SIGNIFICANT WEATHER AND/OR OBSTRUCTIONS TO VISIBILITY.

KYZ001>023-026-027-061>063-070>075-090600-
WESTERN AND SOUTH CENTRAL KENTUCKY

CITY           SKY/WX    TMP DP  RH WIND       PRES   REMARKS
PADUCAH        CLEAR     26  13  57 N13       30.57R WCI  15
HENDERSON      CLOUDY    27  12  54 NW8       30.55R WCI  18
OWENSBORO      CLOUDY    27  15  61 NW13G18   30.55R WCI  16
HOPKINSVILLE   CLEAR     24  15  69 NW5       30.53R WCI  18
BOWLING GREEN  CLOUDY    27  15  61 W7        30.52R WCI  19
GLASGOW        NOT AVBL
$$

KYZ024-025-028>034-038-045-046-053-090600-
NORTH CENTRAL KENTUCKY

CITY           SKY/WX    TMP DP  RH WIND       PRES   REMARKS
LOUISVILLE/SDF FLURRIES  26  12  55 NW13      30.51R WCI  15
LOUISVILLE/LOU CLOUDY    25  14  63 NW10      30.51R WCI  15
FORT KNOX      FLURRIES  25  14  63 W7        30.48R WCI  17
$$

KYZ035>037-039>044-047>052-055>060-089>105-090600-
NORTHEAST KENTUCKY

CITY           SKY/WX    TMP DP  RH WIND       PRES   REMARKS
LEXINGTON      CLOUDY    24  13  62 NW9       30.45R WCI  14
COVINGTON      FLURRIES  23  15  71 NW12      30.44R WCI  12
FRANKFORT      CLOUDY    25  14  63 NW7       30.46R WCI  17
$$

KYZ054-064>069-076>088-106>120-090600-
SOUTHEAST KENTUCKY

CITY           SKY/WX    TMP DP  RH WIND       PRES   REMARKS
JACKSON        CLOUDY    25  15  66 VRB7      30.39R WCI  17
LONDON         CLOUDY    26  15  63 NW7       30.42R WCI  18
SOMERSET       CLOUDY    27  18  69 NW5       30.47R WCI  21
MIDDLESBORO    PTCLDY    27  15  61 NW5       30.42R WCI  22
MONTICELLO     MOCLDY    25  17  72 NW15      30.48R WCI  13
$$





USA.gov is the U.S. government's official web portal to all federal, state and local government web resources and services.